Hauptseite
METAR-TAF:

METAR-TAF

Flughäfen :

Bohrplattform

Awg-1, Niederlande

Breite: 53-29-30N, Länge: 5-56-30E, Höhe: 33 m

Beobachtung

Neuester Wetterbericht von vor 21 Minuten, um 14:55 UTC
Wind 29 kt aus West/Südwest
Temperatur 14°C
Luftfeuchtigkeit 58%
Luftdruck 1004 hPa
Sichtweite 10 km oder mehr
Aufgelockert bewölkt in der Höhe von 3600 ft
Aufgelockert bewölkt in der Höhe von 4100 ft

METAR: EHMA 211455Z AUTO 25029KT 9999 SCT036 SCT041 14/06 Q1004 W///H///

Zeit: 17:16 (15:16 UTC)


TAF: fehlend

Wetterbeobachtungen und Prognosen von mehr als 4000 Flughäfen (METAR und TAF Bericht).

Die verfügbaren Stationen werden durch gelbe und rote Markierungen auf der Karte dargestellt.

Führen Sie die Maus auf sie, um den Namen der Station zu sehen.

Darauf klicken, um die Beobachtung von Wetterbeobachtungen und Prognosen zu sehen.

Um die Karte zu ändern : klicken Sie auf den grünen Tasten mit einem schwarzen Kreuz Zum Vergrößern, auf den grünen Button mit einem Gedankenstrich zu verkleinern, oder auf die grünen Pfeile für benachbarte Karten.


METAR-TAF: